Home > Time Zones > World Clock > Weather > Japan > Naha > Past weeks

Flag for Japan Weather past 2 weeks in Naha, Okinawa, Japan

Now
86 °F

Sprinkles. Scattered clouds.


Feels Like: 97 °F
Forecast: 82 / 89 °F
Wind: 7 mph from Northwest

Location: Naha Airport

Current Time: Jul 26, 2014 at 12:06:19 PM

Latest Report: Jul 26, 2014 at 11:30 AM


Visibility: N/A

Pressure: 29.92 "Hg

Humidity: 75%

Dew point: 77 °F

Location of NahaLocation

Historic Weather in Naha — Graph

°F

Naha temperature yesterday

Maximum temperature yesterday: 90 °F (at 1:00 PM)
Minimum temperature yesterday: 82 °F (at 4:30 AM)
Average temperature yesterday: 86 °F

Past Weeks' High & Low Weather Summary

 TemperatureHumidityPressure
High91 °F (Jul 20, 1:30 PM)94% (Jul 11, 8:30 PM)29.95 "Hg (Jul 11, 8:30 PM)
Low81 °F (Jul 13, 12:30 AM)55% (Jul 20, 4:00 PM)29.68 "Hg (Jul 22, 3:30 AM)
Average85 °F78%29.83 "Hg
* Reported Jul 11 10:00 AM — Jul 26 10:30 AM, Naha, Weather by CustomWeather, © 2014

Note: Actual official high and low records may vary slightly from our data, if they occured in-between our weather recording intervals... More about our weather records

Advertising

Naha weather history for previous 24 hours

 ConditionsComfort  
Time TempWeatherWind HumidityBarometerVisibility
10:30 AM
Jul 26
86 °FScattered clouds.6 mph75%29.92 "HgN/A
10:00 AM90 °FPassing clouds.6 mph63%29.92 "HgN/A
9:30 AM88 °FScattered clouds.5 mph66%29.92 "HgN/A
9:00 AM86 °FPassing clouds.5 mph70%29.92 "HgN/A
8:30 AM86 °FPassing clouds.5 mph75%29.92 "HgN/A
8:00 AM84 °FScattered clouds.5 mph79%29.92 "HgN/A
7:30 AM84 °FPassing clouds.6 mph79%29.92 "HgN/A
7:00 AM82 °FPassing clouds.3 mph84%29.89 "HgN/A
6:30 AM82 °FPassing clouds.5 mph84%29.89 "HgN/A
6:00 AM82 °FPassing clouds.3 mph84%29.89 "HgN/A
5:30 AM82 °FPassing clouds.3 mph84%29.89 "HgN/A
5:00 AM82 °FPassing clouds.2 mph84%29.86 "HgN/A
4:30 AM82 °FPassing clouds.3 mph84%29.86 "HgN/A
4:00 AM82 °FPassing clouds.2 mph84%29.89 "HgN/A
3:30 AM82 °FPassing clouds.3 mph84%29.89 "HgN/A
3:00 AM82 °FPassing clouds.3 mph84%29.89 "HgN/A
2:30 AM82 °FPassing clouds.2 mph79%29.89 "HgN/A
2:00 AM82 °FPassing clouds.3 mph79%29.89 "HgN/A
1:30 AM82 °FPassing clouds.2 mph79%29.89 "HgN/A
1:00 AM84 °FPassing clouds.2 mph74%29.92 "HgN/A
12:30 AM84 °FPassing clouds.3 mph74%29.92 "HgN/A
12:00 AM84 °FPassing clouds.5 mph79%29.92 "HgN/A
11:30 PM
Jul 25
84 °FPassing clouds.5 mph79%29.92 "HgN/A
11:00 PM84 °FPassing clouds.6 mph79%29.92 "HgN/A
10:30 PM84 °FPassing clouds.6 mph79%29.95 "HgN/A
10:00 PM84 °FPassing clouds.6 mph79%29.92 "HgN/A
9:30 PM84 °FPassing clouds.7 mph79%29.92 "HgN/A
9:00 PM84 °FPassing clouds.9 mph74%29.92 "HgN/A
8:30 PM84 °FPassing clouds.9 mph79%29.89 "HgN/A
8:00 PM84 °FPassing clouds.9 mph79%29.89 "HgN/A
7:30 PM84 °FPassing clouds.10 mph74%29.89 "HgN/A
7:00 PM86 °FPassing clouds.12 mph75%29.86 "HgN/A
6:30 PM86 °FPassing clouds.13 mph75%29.86 "HgN/A
6:00 PM86 °FPassing clouds.14 mph75%29.86 "HgN/A
5:30 PM88 °FPassing clouds.14 mph70%29.86 "HgN/A
5:00 PM88 °FPassing clouds.14 mph70%29.86 "HgN/A
4:30 PM88 °FPassing clouds.15 mph70%29.86 "HgN/A
4:00 PM88 °FScattered clouds.15 mph70%29.86 "HgN/A
3:30 PM90 °FScattered clouds.17 mph67%29.83 "HgN/A
3:00 PM90 °FScattered clouds.17 mph71%29.83 "HgN/A
2:30 PM90 °FPassing clouds.17 mph67%29.83 "HgN/A
2:00 PM90 °FScattered clouds.16 mph71%29.86 "HgN/A
1:30 PM90 °FScattered clouds.17 mph71%29.86 "HgN/A
1:00 PM90 °FScattered clouds.16 mph67%29.86 "HgN/A
12:30 PM88 °FPassing clouds.16 mph75%29.86 "HgN/A
12:00 PM88 °FPassing clouds.14 mph70%29.86 "HgN/A
Weather by CustomWeather, © 2014

See weather overviewHow to use our weather pages